SCP
0 0 -0 0 0 0 0 0 0 0 0 0 0 0 0 0 0 0 0 0 0 0 0 0 0 0 0 0 0 0 0 0 0 0 0 0 0 0 0 0 0 0 0
0 0 0 0 0 0 0 0 0 0 0 0 0 0 0 0 0 0 0 0 0 0 0 0 0 0 0 0 0 0 0 0 0 0 0 0 0 0 0 0 0 0 0
0 0 0 0 0 0 0 0 0 0 0 0 0 0 0 0 0 0 0 0 0 0 0 0 0 0 0 0 0 0 0 0 0 0 0 0 0 0 0 0 0 0 0
0 0 0 0 0 0 0 0 0 0 0 0 0 0 0 0 0 0 0 0 0 0 0 0 0 0 0 0 0 0 0 0 0 0 0 0 0 0 0 0 0 0 0
0 0 0 0 0 0 0 0 0 0 0 0 0 0 0 0 0 0 0 0 0 0 0 0 0 0 0 0 0 0 0 0 0 0 0 0 0 0 0 0 0 0 0
0 0 0 0 0 0 0 0 0 0 0 0 0 0 0 0 0 0 0 0 0 0 0 0 0 0 0 0 0 0 0 0 0 0 0 0 0 0 0 0 0 0 0
0 0 0 0 0 0 0 0 0 0 0 0 0 0 0 0 0 0 0 0 0 0 0 0 0 0 0 0 0 0 0 0 0 0 0 0 0 0 0 0 0 0 0
0 0 0 0 0 0 0 0 0 0 0 0 0 0 0 0 0 0 0 0 0 0 0 0 0 0 0 0 0 0 0 0 0 0 0 0 0 0 0 0 0 0 0
0 0 0 0 0 0 0 0 0 0 0 0 0 0 0 0 0 0 0 0 0 0 0 0 0 0 0 0 0 0 0 0 0 0 0 0 0 0 0 0 0 0 0
0 0 0 0 0 0 0 0 0 0 0 0 0 0 0 0 0 0 0 0 0 0 0 0 0 0 0 0 0 0 0 0 0 0 0 0 0 0 0 0 0 0 0
0 0 0 0 0 0 0 0 0 0 0 0 0 0 0 0 0 0 0 0 0 0 0 0 0 0 0 0 0 0 0 0 0 0 0 0 0 0 0 0 0 0 0
0 0 0 0 0 0 0 0 0 0 0 0 0 0 0 0 0 0 0 0 0 0 0 0 0 0 0 0 0 0 0 0 0 0 0 0 0 0 0 0 0 0 0
0 0 0 0 0 0 0 0 0 0 0 0 0 0 0 0 0 0 0 0 0 0 0 0 0 0 0 0 0 0 0 0 0 0 0 0 0 0 0 0 0 0 0
0 0 0 0 0 0 0 0 0 0 0 0 0 0 0 0 0 0 0 0 0 0 0 0 0 0 0 0 0 0 0 0 0 0 0 0 0 0 0 0 0 0 0
0 0 0 0 0 0 0 0 0 0 0 0 0 0 0 0 0 0 0 0 0 0 0 0 0 0 0 0 0 0 0 0 0 0 0 0 0 0 0 0 0 0 0
0 0 0 0 0 0 0 0 0 0 0 0 0 0 0 0 0 0 0 0 0 0 0 0 0 0 0 0 0 0 0 0 0 0 0 0 0 0 0 0 0 0 0
0 0 0 0 0 0 0 0 0 0 0 0 0 0 0 0 0 0 0 0 0 0 0 0 0 0 0 0 0 0 0 0 0 0 0 0 0 0 0 0 0 0 0
0 0 0 0 0 0 0 0 0 0 0 0 0 0 0 0 0 0 0 0 0 0 0 0 0 0 0 0 0 0 0 0 0 0 0 0 0 0 0 0 0 0 0
0 0 0 0 0 0 0 0 0 0 0 0 0 0 0 0 0 0 0 0 0 0 0 0 0 0 0 0 0 0 0 0 0 0 0 0 0 0 0 0 0 0 0
0 0 0 0 0 0 0 0 0 0 0 0 0 0 0 0 0 0 0 0 0 0 0 0 0 0 0 0 0 0 0 0 0 0 0 0 0 0 0 0 0 0 0
0 0 0 0 0 0 0 0 0 0 0 0 0 0 0 0 0 0 0 0 0 0 0 0 0 0 0 0 0 0 0 0 0 0 0 0 0 0 0 0 0 0 0
0 0 0 0 0 0 0 0 0 0 0 0 0 0 0 0 0 0 0 0 0 0 0 0 0 0 0 0 0 0 0 0 0 0 0 0 0 0 0 0 0 0 0
0 0 0 0 0 0 0 0 0 0 0 0 0 0 0 0 0 0 0 0 0 0 0 0 0 0 0 0 0 0 0 0 0 0 0 0 0 0 0 0 0 0 0
0 0 0 0 0 0 0 0 0 0 0 0 0 0 0 0 0 0 0 0 0 0 0 0 0 0 0 0 0 0 0 0 0 0 0 0 0 0 0 0 0 0 0
0 0 0 0 0 0 0 0 0 0 0 0 0 0 0 0 0 0 0 0 0 0 0 0 0 0 0 0 0 0 0 0 0 0 0 0 0 0 0 0 0 0 0
0 0 0 0 0 0 0 0 0 0 0 0 0 0 0 0 0 0 0 0 0 0 0 0 0 0 0 0 0 0 0 0 0 0 0 0 0 0 0 0 0 0 0
Wind_Speed_500mb
60 66 60 53 46 40 35 29 25 20 16 17 18 18 18 22 28 30 26 25 24 24 24 24 25 26 27 31 27 21 25 38 46 58 54 55 61 58 72 68 72 64 58
65 60 56 49 42 37 33 28 22 19 20 21 23 20 18 23 27 26 22 20 20 19 20 20 26 32 35 38 37 30 25 29 33 53 53 55 54 60 67 70 75 70 60
64 58 55 47 41 35 30 25 23 24 26 25 24 24 24 27 28 25 20 21 19 19 23 27 29 33 39 44 44 38 33 29 31 39 45 51 51 63 76 76 76 82 67
61 59 50 40 37 32 29 27 26 25 27 27 28 29 29 27 30 23 20 20 17 19 22 22 25 36 42 46 45 38 32 33 31 36 41 56 63 68 73 78 85 83 73
60 54 46 42 36 35 32 30 30 29 28 27 29 26 24 22 26 25 24 13 12 13 15 22 26 36 44 43 42 28 32 35 38 43 42 56 63 71 75 80 76 85 76
59 53 46 42 39 37 33 33 32 33 32 27 21 18 22 24 22 20 17 17 12 14 18 23 26 37 40 38 28 18 25 31 31 38 42 53 59 63 66 71 73 74 67
60 54 46 42 40 36 35 34 32 33 33 28 18 18 24 23 20 16 11 17 16 18 21 26 40 41 43 39 26 17 19 26 29 30 40 43 49 54 60 65 70 67 69
60 53 45 41 41 38 36 34 28 28 31 29 22 22 23 22 18 15 18 19 19 19 29 37 45 45 46 41 32 24 11 21 31 22 31 37 40 47 54 63 58 60 63
57 52 47 44 43 41 35 37 27 27 27 27 27 16 20 19 15 13 23 18 10 11 24 31 39 44 42 37 32 27 25 23 21 25 26 26 34 41 49 59 63 61 67
60 53 47 45 43 37 39 34 28 29 30 26 21 15 19 15 13 11 6 5 9 16 20 29 38 38 38 38 36 35 32 29 31 32 31 34 27 33 40 51 59 55 65
58 53 50 46 41 40 38 31 36 32 28 25 20 16 14 12 9 6 6 9 10 7 12 25 32 35 33 42 44 39 35 29 34 32 32 38 41 42 39 50 51 55 55
61 56 54 46 41 38 30 41 29 26 27 21 21 14 11 8 4 3 5 9 12 14 21 29 33 36 35 40 44 40 36 31 36 38 39 43 45 46 38 44 53 42 43
61 54 52 46 37 35 34 32 26 25 25 24 20 16 5 7 5 3 4 8 12 17 21 26 33 34 37 35 34 39 36 39 41 44 43 46 46 41 43 39 51 44 41
60 59 56 47 41 34 30 28 33 33 20 16 24 25 20 16 19 7 9 11 14 16 19 25 25 20 23 25 30 36 37 34 42 43 42 42 43 43 48 46 50 58 52
61 58 53 54 49 47 43 41 33 37 36 34 34 30 17 10 7 6 10 12 14 18 20 16 18 24 25 26 29 34 40 37 43 42 44 44 47 48 49 49 52 42 47
65 58 60 50 46 45 42 32 34 37 33 28 26 22 26 9 4 8 11 14 17 21 19 18 20 22 26 27 30 34 39 38 39 40 43 41 47 48 49 48 46 53 52
60 61 53 43 34 41 37 27 28 36 32 28 23 18 9 9 9 10 15 19 22 18 17 18 19 20 25 25 27 32 36 35 32 37 41 42 45 47 48 49 50 57 47
61 57 52 40 33 24 23 14 24 24 24 20 15 18 18 13 12 16 22 21 19 19 18 16 18 19 21 23 24 31 31 35 32 36 38 45 38 46 48 49 49 51 58
59 54 46 42 39 35 31 26 25 25 14 23 25 24 20 16 16 19 15 12 15 16 16 18 17 19 19 21 22 25 24 25 26 29 37 43 40 44 46 47 47 48 52
50 48 47 43 42 34 25 23 22 28 18 23 18 14 21 19 19 11 12 14 12 12 17 18 20 18 20 20 19 18 16 19 23 25 36 41 44 35 45 43 46 47 48
55 50 41 39 35 31 29 24 22 23 27 25 25 23 25 19 11 10 8 10 12 11 15 15 11 16 15 14 15 16 20 23 25 23 35 40 43 31 44 39 43 44 47
51 49 38 38 35 32 27 26 22 25 26 24 18 20 26 18 12 9 8 10 9 10 12 14 7 8 12 15 20 23 26 28 26 26 31 37 41 32 42 41 43 45 45
46 42 36 32 31 33 29 22 23 20 21 20 11 26 19 15 13 10 9 9 10 11 8 7 5 10 11 18 21 23 26 28 28 26 27 37 38 36 36 41 39 44 46
30 35 32 30 26 30 27 23 22 23 27 22 17 18 14 15 15 13 11 12 10 7 9 8 10 13 16 19 21 23 24 26 26 27 27 34 31 37 32 40 35 41 43
29 31 29 28 26 26 30 26 20 28 25 23 24 17 16 15 14 12 13 12 8 7 6 4 4 11 17 19 20 21 22 23 24 26 28 31 23 27 29 36 32 38 39
29 28 32 31 27 22 25 28 27 27 30 34 21 21 19 14 12 13 12 12 13 11 5 4 5 11 16 17 19 20 20 20 20 24 28 26 32 28 35 33 34 35 38
Wind_Direction_500mb
158 164 159 161 160 155 156 149 138 127 111 104 96 93 98 105 108 89 77 75 71 68 65 46 40 24 22 2 358 345 352 339 335 341 341 344 344 349 347 357 1 9 5
164 155 154 152 152 151 145 138 136 129 118 111 108 105 102 106 104 113 105 90 82 70 61 44 29 20 11 1 357 357 344 347 351 341 345 344 344 344 355 358 5 8 9
151 154 154 149 150 147 143 139 132 126 120 115 109 105 100 98 100 99 93 79 64 55 47 36 10 5 0 359 355 350 350 359 1 346 341 335 354 353 357 1 7 14 15
152 154 150 149 150 144 140 134 132 129 122 117 111 110 107 118 121 100 80 81 72 42 41 40 355 356 358 352 348 351 357 5 358 348 355 1 3 4 2 360 3 7 6
154 152 150 149 144 139 135 134 130 124 118 118 125 142 149 138 136 122 105 89 78 62 33 28 8 357 354 346 343 358 3 359 352 350 360 1 1 1 4 1 351 353 5
152 146 147 142 142 142 136 135 134 126 121 119 129 145 124 131 132 126 117 94 50 39 27 31 1 351 348 352 355 16 358 343 343 358 3 1 360 1 0 7 7 359 357
145 142 144 146 140 133 132 132 129 128 133 128 147 140 131 127 126 118 95 81 28 17 6 6 359 355 354 354 355 350 346 349 340 2 1 1 357 359 357 2 7 3 1
138 139 141 139 134 134 135 137 137 138 130 128 124 125 132 128 118 107 84 64 29 12 355 351 350 355 357 355 354 9 355 340 342 9 358 356 1 356 356 355 2 6 9
136 137 138 140 137 144 143 129 136 134 128 123 120 122 130 128 120 101 90 68 357 12 346 340 349 356 357 2 2 12 18 28 40 21 4 3 8 359 355 353 1 3 2
137 142 142 140 145 146 137 138 137 117 123 125 129 134 131 130 124 120 98 101 62 36 352 338 348 357 4 7 14 21 20 24 19 14 360 343 348 360 1 359 2 4 7
140 142 144 146 147 140 144 142 119 142 140 133 145 145 112 121 117 99 53 29 27 41 325 347 0 5 13 26 27 27 16 12 17 10 4 5 7 10 1 358 359 5 6
141 145 149 148 142 146 146 135 159 167 140 134 118 83 85 85 84 53 26 12 16 3 358 7 18 27 29 22 22 19 15 36 28 18 15 13 10 6 6 352 358 1 5
149 150 141 138 145 143 141 143 132 113 117 112 120 134 79 84 336 318 22 13 7 4 5 23 26 29 26 26 19 6 21 34 28 19 19 16 14 7 14 4 355 13 20
148 144 147 151 134 118 115 134 151 151 137 149 149 153 188 226 298 333 20 21 7 20 39 32 20 31 26 27 22 14 15 34 29 19 19 17 18 16 19 16 8 6 14
149 146 143 134 149 154 164 164 171 165 166 169 175 173 191 226 313 35 32 23 32 44 42 35 23 35 30 31 29 18 11 31 30 21 17 18 17 14 18 15 7 14 8
148 147 140 155 162 169 176 161 171 181 183 184 192 195 210 218 57 57 33 40 55 61 46 34 36 40 34 26 26 21 14 26 29 22 19 19 17 15 14 16 9 16 16
147 142 149 155 158 171 179 181 166 178 190 201 212 220 171 155 100 67 62 55 59 59 52 46 36 40 38 26 31 25 15 14 27 25 23 17 20 15 14 15 14 11 16
150 148 146 150 140 126 120 118 135 147 162 160 156 153 142 117 102 95 75 61 54 48 41 42 40 33 45 29 42 26 13 11 25 26 24 17 21 16 12 15 14 14 9
148 140 149 146 139 145 164 141 137 140 135 129 128 130 116 103 92 85 81 80 70 61 50 36 33 29 36 37 42 30 15 10 15 30 26 23 14 19 14 14 12 16 7
139 154 149 152 146 147 172 146 148 145 139 117 109 128 90 84 73 63 74 80 71 74 68 40 24 33 24 34 33 20 1 1 14 42 36 26 8 24 16 12 14 13 11
154 148 149 153 142 151 162 147 157 137 138 140 162 161 141 121 111 104 72 77 93 74 85 62 37 41 24 18 14 17 13 12 18 53 47 26 3 22 19 11 16 12 13
156 149 146 140 153 154 156 153 158 142 157 162 190 182 144 119 122 107 95 93 70 71 79 89 39 47 18 19 21 25 23 21 22 47 48 39 3 17 23 10 17 13 15
156 145 148 153 160 159 152 147 161 166 158 148 172 146 128 143 128 126 122 101 90 80 67 76 57 33 33 28 25 28 26 28 27 37 38 38 11 6 28 12 20 12 13
144 143 152 161 168 151 152 162 164 156 165 155 154 151 155 132 167 151 129 116 108 97 86 33 15 34 36 29 26 26 28 32 35 47 44 34 22 3 32 15 26 17 15
155 160 158 162 161 151 168 155 159 163 160 165 167 165 154 158 150 147 131 132 120 106 112 142 57 10 34 28 27 28 30 34 40 41 36 29 16 17 29 24 23 24 16
155 166 168 167 152 162 167 167 164 168 172 178 172 166 166 167 173 154 150 144 144 142 148 37 16 20 28 27 29 29 30 37 45 46 33 15 15 39 23 29 20 31 21
Wind_Speed_850mb
60 66 60 53 46 40 35 29 25 20 16 17 18 18 18 22 28 30 26 25 24 24 24 24 25 26 27 31 27 21 25 38 46 58 54 55 61 58 72 68 72 64 58
65 60 56 49 42 37 33 28 22 19 20 21 23 20 18 23 27 26 22 20 20 19 20 20 26 32 35 38 37 30 25 29 33 53 53 55 54 60 67 70 75 70 60
64 58 55 47 41 35 30 25 23 24 26 25 24 24 24 27 28 25 20 21 19 19 23 27 29 33 39 44 44 38 33 29 31 39 45 51 51 63 76 76 76 82 67
61 59 50 40 37 32 29 27 26 25 27 27 28 29 29 27 30 23 20 20 17 19 22 22 25 36 42 46 45 38 32 33 31 36 41 56 63 68 73 78 85 83 73
60 54 46 42 36 35 32 30 30 29 28 27 29 26 24 22 26 25 24 13 12 13 15 22 26 36 44 43 42 28 32 35 38 43 42 56 63 71 75 80 76 85 76
59 53 46 42 39 37 33 33 32 33 32 27 21 18 22 24 22 20 17 17 12 14 18 23 26 37 40 38 28 18 25 31 31 38 42 53 59 63 66 71 73 74 67
60 54 46 42 40 36 35 34 32 33 33 28 18 18 24 23 20 16 11 17 16 18 21 26 40 41 43 39 26 17 19 26 29 30 40 43 49 54 60 65 70 67 69
60 53 45 41 41 38 36 34 28 28 31 29 22 22 23 22 18 15 18 19 19 19 29 37 45 45 46 41 32 24 11 21 31 22 31 37 40 47 54 63 58 60 63
57 52 47 44 43 41 35 37 27 27 27 27 27 16 20 19 15 13 23 18 10 11 24 31 39 44 42 37 32 27 25 23 21 25 26 26 34 41 49 59 63 61 67
60 53 47 45 43 37 39 34 28 29 30 26 21 15 19 15 13 11 6 5 9 16 20 29 38 38 38 38 36 35 32 29 31 32 31 34 27 33 40 51 59 55 65
58 53 50 46 41 40 38 31 36 32 28 25 20 16 14 12 9 6 6 9 10 7 12 25 32 35 33 42 44 39 35 29 34 32 32 38 41 42 39 50 51 55 55
61 56 54 46 41 38 30 41 29 26 27 21 21 14 11 8 4 3 5 9 12 14 21 29 33 36 35 40 44 40 36 31 36 38 39 43 45 46 38 44 53 42 43
61 54 52 46 37 35 34 32 26 25 25 24 20 16 5 7 5 3 4 8 12 17 21 26 33 34 37 35 34 39 36 39 41 44 43 46 46 41 43 39 51 44 41
60 59 56 47 41 34 30 28 33 33 20 16 24 25 20 16 19 7 9 11 14 16 19 25 25 20 23 25 30 36 37 34 42 43 42 42 43 43 48 46 50 58 52
61 58 53 54 49 47 43 41 33 37 36 34 34 30 17 10 7 6 10 12 14 18 20 16 18 24 25 26 29 34 40 37 43 42 44 44 47 48 49 49 52 42 47
65 58 60 50 46 45 42 32 34 37 33 28 26 22 26 9 4 8 11 14 17 21 19 18 20 22 26 27 30 34 39 38 39 40 43 41 47 48 49 48 46 53 52
60 61 53 43 34 41 37 27 28 36 32 28 23 18 9 9 9 10 15 19 22 18 17 18 19 20 25 25 27 32 36 35 32 37 41 42 45 47 48 49 50 57 47
61 57 52 40 33 24 23 14 24 24 24 20 15 18 18 13 12 16 22 21 19 19 18 16 18 19 21 23 24 31 31 35 32 36 38 45 38 46 48 49 49 51 58
59 54 46 42 39 35 31 26 25 25 14 23 25 24 20 16 16 19 15 12 15 16 16 18 17 19 19 21 22 25 24 25 26 29 37 43 40 44 46 47 47 48 52
50 48 47 43 42 34 25 23 22 28 18 23 18 14 21 19 19 11 12 14 12 12 17 18 20 18 20 20 19 18 16 19 23 25 36 41 44 35 45 43 46 47 48
55 50 41 39 35 31 29 24 22 23 27 25 25 23 25 19 11 10 8 10 12 11 15 15 11 16 15 14 15 16 20 23 25 23 35 40 43 31 44 39 43 44 47
51 49 38 38 35 32 27 26 22 25 26 24 18 20 26 18 12 9 8 10 9 10 12 14 7 8 12 15 20 23 26 28 26 26 31 37 41 32 42 41 43 45 45
46 42 36 32 31 33 29 22 23 20 21 20 11 26 19 15 13 10 9 9 10 11 8 7 5 10 11 18 21 23 26 28 28 26 27 37 38 36 36 41 39 44 46
30 35 32 30 26 30 27 23 22 23 27 22 17 18 14 15 15 13 11 12 10 7 9 8 10 13 16 19 21 23 24 26 26 27 27 34 31 37 32 40 35 41 43
29 31 29 28 26 26 30 26 20 28 25 23 24 17 16 15 14 12 13 12 8 7 6 4 4 11 17 19 20 21 22 23 24 26 28 31 23 27 29 36 32 38 39
29 28 32 31 27 22 25 28 27 27 30 34 21 21 19 14 12 13 12 12 13 11 5 4 5 11 16 17 19 20 20 20 20 24 28 26 32 28 35 33 34 35 38
Wind_Direction_850mb
158 164 159 161 160 155 156 149 138 127 111 104 96 93 98 105 108 89 77 75 71 68 65 46 40 24 22 2 358 345 352 339 335 341 341 344 344 349 347 357 1 9 5
164 155 154 152 152 151 145 138 136 129 118 111 108 105 102 106 104 113 105 90 82 70 61 44 29 20 11 1 357 357 344 347 351 341 345 344 344 344 355 358 5 8 9
151 154 154 149 150 147 143 139 132 126 120 115 109 105 100 98 100 99 93 79 64 55 47 36 10 5 0 359 355 350 350 359 1 346 341 335 354 353 357 1 7 14 15
152 154 150 149 150 144 140 134 132 129 122 117 111 110 107 118 121 100 80 81 72 42 41 40 355 356 358 352 348 351 357 5 358 348 355 1 3 4 2 360 3 7 6
154 152 150 149 144 139 135 134 130 124 118 118 125 142 149 138 136 122 105 89 78 62 33 28 8 357 354 346 343 358 3 359 352 350 360 1 1 1 4 1 351 353 5
152 146 147 142 142 142 136 135 134 126 121 119 129 145 124 131 132 126 117 94 50 39 27 31 1 351 348 352 355 16 358 343 343 358 3 1 360 1 0 7 7 359 357
145 142 144 146 140 133 132 132 129 128 133 128 147 140 131 127 126 118 95 81 28 17 6 6 359 355 354 354 355 350 346 349 340 2 1 1 357 359 357 2 7 3 1
138 139 141 139 134 134 135 137 137 138 130 128 124 125 132 128 118 107 84 64 29 12 355 351 350 355 357 355 354 9 355 340 342 9 358 356 1 356 356 355 2 6 9
136 137 138 140 137 144 143 129 136 134 128 123 120 122 130 128 120 101 90 68 357 12 346 340 349 356 357 2 2 12 18 28 40 21 4 3 8 359 355 353 1 3 2
137 142 142 140 145 146 137 138 137 117 123 125 129 134 131 130 124 120 98 101 62 36 352 338 348 357 4 7 14 21 20 24 19 14 360 343 348 360 1 359 2 4 7
140 142 144 146 147 140 144 142 119 142 140 133 145 145 112 121 117 99 53 29 27 41 325 347 0 5 13 26 27 27 16 12 17 10 4 5 7 10 1 358 359 5 6
141 145 149 148 142 146 146 135 159 167 140 134 118 83 85 85 84 53 26 12 16 3 358 7 18 27 29 22 22 19 15 36 28 18 15 13 10 6 6 352 358 1 5
149 150 141 138 145 143 141 143 132 113 117 112 120 134 79 84 336 318 22 13 7 4 5 23 26 29 26 26 19 6 21 34 28 19 19 16 14 7 14 4 355 13 20
148 144 147 151 134 118 115 134 151 151 137 149 149 153 188 226 298 333 20 21 7 20 39 32 20 31 26 27 22 14 15 34 29 19 19 17 18 16 19 16 8 6 14
149 146 143 134 149 154 164 164 171 165 166 169 175 173 191 226 313 35 32 23 32 44 42 35 23 35 30 31 29 18 11 31 30 21 17 18 17 14 18 15 7 14 8
148 147 140 155 162 169 176 161 171 181 183 184 192 195 210 218 57 57 33 40 55 61 46 34 36 40 34 26 26 21 14 26 29 22 19 19 17 15 14 16 9 16 16
147 142 149 155 158 171 179 181 166 178 190 201 212 220 171 155 100 67 62 55 59 59 52 46 36 40 38 26 31 25 15 14 27 25 23 17 20 15 14 15 14 11 16
150 148 146 150 140 126 120 118 135 147 162 160 156 153 142 117 102 95 75 61 54 48 41 42 40 33 45 29 42 26 13 11 25 26 24 17 21 16 12 15 14 14 9
148 140 149 146 139 145 164 141 137 140 135 129 128 130 116 103 92 85 81 80 70 61 50 36 33 29 36 37 42 30 15 10 15 30 26 23 14 19 14 14 12 16 7
139 154 149 152 146 147 172 146 148 145 139 117 109 128 90 84 73 63 74 80 71 74 68 40 24 33 24 34 33 20 1 1 14 42 36 26 8 24 16 12 14 13 11
154 148 149 153 142 151 162 147 157 137 138 140 162 161 141 121 111 104 72 77 93 74 85 62 37 41 24 18 14 17 13 12 18 53 47 26 3 22 19 11 16 12 13
156 149 146 140 153 154 156 153 158 142 157 162 190 182 144 119 122 107 95 93 70 71 79 89 39 47 18 19 21 25 23 21 22 47 48 39 3 17 23 10 17 13 15
156 145 148 153 160 159 152 147 161 166 158 148 172 146 128 143 128 126 122 101 90 80 67 76 57 33 33 28 25 28 26 28 27 37 38 38 11 6 28 12 20 12 13
144 143 152 161 168 151 152 162 164 156 165 155 154 151 155 132 167 151 129 116 108 97 86 33 15 34 36 29 26 26 28 32 35 47 44 34 22 3 32 15 26 17 15
155 160 158 162 161 151 168 155 159 163 160 165 167 165 154 158 150 147 131 132 120 106 112 142 57 10 34 28 27 28 30 34 40 41 36 29 16 17 29 24 23 24 16
155 166 168 167 152 162 167 167 164 168 172 178 172 166 166 167 173 154 150 144 144 142 148 37 16 20 28 27 29 29 30 37 45 46 33 15 15 39 23 29 20 31 21